Location: Gwatt
(46.7204°N, 7.6223°E)
Time: 02:19:44
(UTC+00:00)

Terra - Pass Details

Date: 18 September 2020
Orbit: 701 x 703 km, 98.2° (Epoch: 29 October)

Event Time Altitude Azimuth Distance (km) Brightness Sun altitude
Exits shadow 21:57:48 19° 329° (NNW) 1,662 4.3 -38.3°
Drops below altitude 10° 21:59:12 10° 336° (NNW) 2,182 5.1 -38.4°
Sets 22:01:33 0° 342° (NNW) 3,105 6.1 -38.6°
